New York, NY

9:49 AM EDT on July 24, 2016 (GMT -0400)
Central Park

Weather History for KNYC - May, 2012

Change the Weather History Date:

Monday, May 7, 2012

  Actual Average Record
Temperature  
Mean Temperature 59 °F 60 °F  
Max Temperature 65 °F 68 °F 93 °F (2000)
Min Temperature 52 °F 51 °F 37 °F (1891)
Degree Days  
Heating Degree Days 6 6  
Month to date heating degree days 47 48  
Since 1 July heating degree days 3669 4641  
Cooling Degree Days 0 1  
Month to date cooling degree days 0 7  
Year to date cooling degree days 24 19  
Growing Degree Days 8 (Base 50)    
Moisture  
Dew Point 44 °F    
Average Humidity 60    
Maximum Humidity 69    
Minimum Humidity 51    
Precipitation  
Precipitation 0.01 in 0.14 in 3.82 in (1908)
Month to date precipitation 1.28 0.90  
Year to date precipitation 10.40 16.50  
Snow  
Snow 0.00 in 0.00 in 0.00 in (2002)
Month to date snowfall 0.0 0.0  
Since 1 July snowfall 7.4 25.8  
Snow Depth 0.00 in    
Sea Level Pressure  
Sea Level Pressure 30.13 in    
Wind  
Wind Speed 4 mph (SW)    
Max Wind Speed 10 mph    
Max Gust Speed 23 mph    
Visibility 10 miles    
Events Rain    
T = Trace of Precipitation, MM = Missing Value Source: NWS Daily Summary

Daily Weather History Graph

Daily Weather History Graph

Search for Another Location

Airport or City:

Trip Planner

Search our weather history database for the weather conditions in past years. The results will help you decide how hot, cold, wet, or windy it might be!

Date:

Astronomy

May. 07, 2012 Rise Set
Actual Time 5:46 AM EDT 7:58 PM EDT
Civil Twilight 5:16 AM EDT 8:29 PM EDT
Nautical Twilight 4:38 AM EDT 9:06 PM EDT
Astronomical Twilight 3:58 AM EDT 9:47 PM EDT
Moon 10:08 PM EDT (5/7) 6:49 AM EDT (5/7)
Length of Visible Light 15h 13m
Length of Day
14h 12m
Waning Gibbous, 97% of the Moon is Illuminated
May 7
Waning Gibbous
May 12
Last Quarter
May 20
New
May 28
First Quarter
Jun 4
Full

Hourly Weather History & Observations

Time (EDT) Temp. Dew Point Humidity Pressure Visibility Wind Dir Wind Speed Gust Speed Precip Events Conditions
12:51 AM 53.1 °F 43.0 °F 69% 30.11 in 10.0 mi West 4.6 mph - N/A   Clear
1:51 AM 53.1 °F 39.9 °F 61% 30.10 in 10.0 mi Variable 3.5 mph - N/A   Clear
3:51 AM 53.1 °F 41.0 °F 64% 30.10 in 10.0 mi Calm Calm - N/A   Mostly Cloudy
4:51 AM 53.1 °F 42.1 °F 66% 30.11 in 10.0 mi Calm Calm - N/A   Mostly Cloudy
5:27 AM 54.0 °F 39.9 °F 59% 30.13 in 10.0 mi WSW 3.5 mph - N/A   Overcast
5:51 AM 54.0 °F 41.0 °F 62% 30.11 in 10.0 mi Calm Calm - N/A   Overcast
6:15 AM 54.0 °F 45.0 °F 72% 30.14 in 10.0 mi Calm Calm - N/A   Overcast
6:25 AM 55.0 °F 45.0 °F 69% 30.14 in 10.0 mi Calm Calm - N/A   Overcast
6:51 AM 55.9 °F 41.0 °F 57% 30.14 in 10.0 mi Calm Calm - N/A   Overcast
7:51 AM 57.0 °F 43.0 °F 59% 30.12 in 10.0 mi Variable 3.5 mph - N/A   Overcast
8:17 AM 57.9 °F 43.0 °F 58% 30.14 in 10.0 mi Calm Calm - N/A   Scattered Clouds
8:51 AM 59.0 °F 45.0 °F 60% 30.13 in 10.0 mi Variable 4.6 mph - N/A   Overcast
9:02 AM 59.0 °F 43.0 °F 55% 30.16 in 10.0 mi Variable 4.6 mph - N/A   Overcast
9:32 AM 60.1 °F 41.0 °F 49% 30.16 in 10.0 mi Variable 4.6 mph - N/A   Overcast
9:51 AM 60.1 °F 42.1 °F 51% 30.16 in 10.0 mi West 4.6 mph - N/A   Overcast
10:51 AM 63.0 °F 44.1 °F 50% 30.14 in 10.0 mi Variable 3.5 mph - N/A   Overcast
11:51 AM 64.0 °F 46.9 °F 54% 30.14 in 10.0 mi Variable 4.6 mph - N/A   Mostly Cloudy
12:51 PM 63.0 °F 51.1 °F 65% 30.13 in 10.0 mi Variable 4.6 mph - N/A   Mostly Cloudy
1:51 PM 61.0 °F 50.0 °F 67% 30.13 in 10.0 mi Variable 4.6 mph - N/A   Overcast
2:51 PM 61.0 °F 48.0 °F 62% 30.13 in 10.0 mi Variable 4.6 mph - N/A   Mostly Cloudy
3:51 PM 60.1 °F 44.1 °F 55% 30.12 in 10.0 mi Variable 5.8 mph - N/A   Partly Cloudy
4:51 PM 59.0 °F 43.0 °F 55% 30.12 in 10.0 mi Variable 4.6 mph - N/A   Overcast
5:51 PM 55.9 °F 44.1 °F 64% 30.12 in 10.0 mi Variable 4.6 mph - 0.00 in Rain Light Rain
6:51 PM 54.0 °F 46.9 °F 77% 30.12 in 10.0 mi South 6.9 mph - 0.01 in   Overcast
7:51 PM 55.0 °F 44.1 °F 67% 30.11 in 10.0 mi SSE 5.8 mph - N/A   Overcast
8:51 PM 55.0 °F 44.1 °F 67% 30.10 in 10.0 mi Calm Calm - N/A   Partly Cloudy
9:51 PM 55.9 °F 43.0 °F 62% 30.11 in 10.0 mi Calm Calm - N/A   Overcast
10:51 PM 55.9 °F 43.0 °F 62% 30.11 in 10.0 mi North - - N/A   Overcast
11:51 PM 55.9 °F 45.0 °F 67% 30.10 in 10.0 mi Variable 6.9 mph - N/A   Overcast